Regional Weather Roundup
Issued by NWS

Home | Current Version | Previous Version | Graphics & Text | Print | Product List | Glossary On
Versions: 1 2 3 4 5 6 7 8 9 10 11 12 13 14 15 16 17 18 19 20 21 22 23 24 25 26 27 28 29 30 31 32 33 34 35 36 37 38 39 40 41 42 43 44 45 46 47 48 49 50
000
ASUS44 KMEG 161910
RWRTN
TENNESSEE HOURLY STATE WEATHER ROUNDUP
NATIONAL WEATHER SERVICE MEMPHIS TN
200 PM CDT TUE SEP 16 2014

TNZ002-004-019-021-049-052-054-088>092-162000-
WEST TENNESSEE

CITY           SKY/WX    TMP DP  RH WIND       PRES   REMARKS
MEMPHIS INTL   CLOUDY    75  67  76 NE5       30.10F
NWS MEMPHIS      N/A     74 N/A N/A MISG        N/A
JACKSON        CLOUDY    73  64  73 NE8       30.11F
DYERSBURG      MOSUNNY   73  54  49 NE8       30.12F
UNION CITY     CLOUDY    72  57  60 N6        30.12S
PARIS          CLOUDY    68  57  68 VRB7      30.13F
HUNTINGDON     CLOUDY    69  58  68 NE7       30.12F
LEXINGTON      CLOUDY    70  63  78 NE9       30.10F
SAVANNAH       CLOUDY    75  70  83 N9        30.10S
$$

TNZ008-025-027-028-033-062-065-066-162000-
NORTH MIDDLE TENNESSEE

CITY           SKY/WX    TMP DP  RH WIND       PRES   REMARKS
NASHVILLE      CLOUDY    71  62  73 N9        30.11F
DICKSON          N/A     66  61  82 NE6       30.12F
PORTLAND       PTSUNNY   66  59  77 N5        30.11F
CLARKSVILLE    CLOUDY    70  57  63 MISG      30.12F
SMYRNA         CLOUDY    69  64  84 N9        30.12S
MURFREESBORO   CLOUDY    68  64  86 N7        30.10S
COOKEVILLE     CLOUDY    70  66  88 NW5       30.10S
LIVINGSTON     PTSUNNY   62  61  97 N5        30.12S
GALLATIN       CLOUDY    67  64  90 N6        30.12
CROSSVILLE     CLOUDY    70  63  78 W7        30.12S
$$

TNZ061-075-076-078-094-096-097-162000-
SOUTH MIDDLE TENNESSEE

CITY           SKY/WX    TMP DP  RH WIND       PRES   REMARKS
LEWISBURG      CLOUDY    74  66  75 NE3       30.09F
FAYETTEVILLE   CLOUDY    77  64  65 N6        30.08F
TULLAHOMA      CLOUDY    73  66  78 N6        30.10F
WINCHESTER     CLOUDY    79  66  65 VRB6      30.08F
MCMINNVILLE      N/A     73  70  88 NW6       30.09F
COLUMBIA       CLOUDY    73  70  88 N7        30.09S
SHELBYVILLE    CLOUDY    75  68  78 N7        30.10F
$$

TNZ017-018-042-046-047-162000-
NORTHEAST TENNESSEE

CITY           SKY/WX    TMP DP  RH WIND       PRES   REMARKS
TRI CITIES     PTSUNNY   77  64  64 W13G18    30.06F
ELIZABETHTON   PTCLDY    73  64  73 VRB7      30.06F
$$

TNZ012-013-036-069-073-074-162000-
CENTRAL EAST TENNESSEE

CITY           SKY/WX    TMP DP  RH WIND       PRES   REMARKS
KNOXVILLE      PTSUNNY   80  65  59 W8        30.04F
OAK RIDGE      CLOUDY    78  64  61 VRB5      30.06F
GATLINBURG     PTCLDY    81  64  57 VRB7      30.04F
MORRISTOWN       N/A     75  66  73 NW6       30.07F
$$

TNZ083-085-099-162000-
SOUTHEAST TENNESSEE

CITY           SKY/WX    TMP DP  RH WIND       PRES   REMARKS
CHATTANOOGA    PTSUNNY   83  66  56 CALM      30.05F
$$

SKY/WX REPORTED AS FAIR MEANS FEW OR NO CLOUDS BELOW
12 THOUSAND FEET.




USA.gov is the U.S. government's official web portal to all federal, state and local government web resources and services.